ROMMA est une association bénévole à but non lucratif. Votre soutien est indispensable : ADHERER à ROMMA ou FAIRE un DON

Eygliers - (05, Hautes-Alpes)

Guillestrois (965 m)   Longitude: 6° 38' 04" E   Latitude: 44° 40' 37" N Station partenaire n°53
 

Détail journalier du     <<     >>

Température Precipitation Humidité Vent Dir Rafale Dir. rafale Ensol.
Heure (°C) (mm) (%) (km/h) (km/h) (min)
01:00 3.10693NE10NE0
02:00 3.30673E8NNE0
03:00 3.20694N11E0
04:00 3.30686N13ESE0
05:00 3.40665N13ESE0
06:00 3.50703E8E0
07:00 4.20676E13E0
08:00 4.60655E11SE0
09:00 5.40644NE10NE0
10:00 6.00644ENE8ESE0
11:00 6.80602ESE10ESE0
12:00 5.50.2797N24NNO0
13:00 4.61.6874NNE15NNO0
14:00 5.30.2864E10ESE0
15:00 5.80874ESE11ESE0
16:00 5.90.2891NNE6NNE10
17:00 5.60902NNE6NNE15
18:00 5.20921NNE5NNE0
19:00 5.30901NNE6NNE0
20:00 4.80923NE6NE0
21:00 4.80921NE5NE0
22:00 4.2092000
23:00 4.2090010ESE0
minuit 4.20913E13ESE0

Graphique du 21-11-2018

 

Serveur OMMA